Location: Foulognes
(49.1413°N, 0.8183°W)
Time: 00:39:02
(UTC+00:00)

Cosmos 990 Rocket - Pass Details

Date: 21 October 2019
Orbit: 747 x 769 km, 74.0° (Epoch: 16 November)

Event Time Altitude Azimuth Distance (km) Brightness Sun altitude
Rises 19:31:54 0° 334° (NNW) 3,225 7.8 -25.1°
Reaches altitude 10° 19:34:17 10° 332° (NNW) 2,299 7.0 -25.4°
Maximum altitude 19:39:26 66° 252° (WSW) 836 4.2 -26.3°
Enters shadow 19:40:47 47° 192° (SSW) 1,005 4.5 -26.5°
